Kalamazoo, MI

7:53 AM EST on February 27, 2017 (GMT -0500)
Kalamazoo-Battle Creek International

Weather History for KAZO - July, 2013

Change the Weather History Date:

Tuesday, July 30, 2013

  Actual Average Record
Temperature  
Mean Temperature 63 °F 72 °F  
Max Temperature 78 °F 83 °F 100 °F (1999)
Min Temperature 48 °F 62 °F 48 °F (2013)
Degree Days  
Heating Degree Days 2 0  
Month to date heating degree days 17 0  
Since 1 June heating degree days 56 48  
Since 1 July heating degree days 17 0  
Cooling Degree Days 0 7  
Month to date cooling degree days 231 234  
Year to date cooling degree days 457 420  
Since 1 June cooling degree days 377 379  
Growing Degree Days 14 (Base 50)    
Moisture  
Dew Point 54 °F    
Average Humidity 72    
Maximum Humidity 96    
Minimum Humidity 48    
Precipitation  
Precipitation 0.00 in 0.12 in 2.03 in (2016)
Month to date precipitation 3.19 3.58  
Year to date precipitation 24.54 19.60  
Sea Level Pressure  
Sea Level Pressure 30.20 in    
Wind  
Wind Speed 2 mph (South)    
Max Wind Speed 10 mph    
Max Gust Speed 16 mph    
Visibility 7 miles    
Events      
T = Trace of Precipitation, MM = Missing Value Source: NWS Daily Summary

Daily Weather History Graph

Daily Weather History Graph

Search for Another Location

Airport or City:

Trip Planner

Search our weather history database for the weather conditions in past years. The results will help you decide how hot, cold, wet, or windy it might be!

Date:

Astronomy

Jul. 30, 2013 Rise Set
Actual Time 6:33 AM EDT 9:03 PM EDT
Civil Twilight 6:01 AM EDT 9:35 PM EDT
Nautical Twilight 5:21 AM EDT 10:14 PM EDT
Astronomical Twilight 4:36 AM EDT 10:59 PM EDT
Moon 12:51 AM EDT (7/30) 3:22 PM EDT (7/30)
Length of Visible Light 15h 33m
Length of Day
14h 30m
Last Quarter, 41% of the Moon is Illuminated
Jul 30
Last Quarter
Aug 6
New
Aug 14
First Quarter
Aug 20
Full
Aug 28
Last Quarter

Hourly Weather History & Observations

Time (EDT) Temp. Dew Point Humidity Pressure Visibility Wind Dir Wind Speed Gust Speed Precip Events Conditions
12:53 AM 54.0 °F 52.0 °F 93% 30.21 in 10.0 mi Calm Calm - N/A   Clear
1:53 AM 53.1 °F 51.1 °F 93% 30.22 in 10.0 mi Calm Calm - N/A   Clear
2:53 AM 52.0 °F 50.0 °F 93% 30.21 in 10.0 mi Calm Calm - N/A   Clear
3:38 AM 51.8 °F 48.2 °F 88% 30.21 in 4.0 mi Calm Calm - N/A   Partly Cloudy
3:53 AM 51.1 °F 48.9 °F 92% 30.22 in 10.0 mi Calm Calm - N/A   Partly Cloudy
4:26 AM 51.8 °F 50.0 °F 94% 30.22 in 5.0 mi Calm Calm - N/A   Mostly Cloudy
4:29 AM 51.8 °F 50.0 °F 94% 30.22 in 1.5 mi Calm Calm - N/A   Mostly Cloudy
4:38 AM 50.0 °F 48.2 °F 94% 30.22 in 1.5 mi Calm Calm - N/A   Scattered Clouds
4:40 AM 50.0 °F 48.2 °F 94% 30.22 in 3.0 mi Calm Calm - N/A   Scattered Clouds
4:46 AM 51.8 °F 48.2 °F 88% 30.22 in 1.0 mi Calm Calm - N/A   Mist
4:53 AM 51.1 °F 48.9 °F 92% 30.22 in 0.8 mi Calm Calm - N/A   Mist
4:55 AM 51.8 °F 48.2 °F 88% 30.22 in 1.2 mi Calm Calm - N/A   Scattered Clouds
4:58 AM 51.8 °F 48.2 °F 88% 30.22 in 4.0 mi Calm Calm - N/A   Partly Cloudy
5:03 AM 50.0 °F 48.2 °F 94% 30.22 in 1.8 mi Calm Calm - N/A   Partly Cloudy
5:16 AM 50.0 °F 48.2 °F 94% 30.22 in 3.0 mi Calm Calm - N/A   Partly Cloudy
5:53 AM 50.0 °F 48.0 °F 93% 30.22 in 10.0 mi Calm Calm - N/A   Clear
6:53 AM 50.0 °F 48.0 °F 93% 30.22 in 10.0 mi Calm Calm - N/A   Clear
7:53 AM 55.9 °F 53.1 °F 90% 30.24 in 6.0 mi Calm Calm - N/A   Clear
8:53 AM 61.0 °F 55.9 °F 83% 30.24 in 10.0 mi Calm Calm - N/A   Clear
9:53 AM 66.0 °F 57.0 °F 73% 30.24 in 10.0 mi South 3.5 mph - N/A   Clear
10:53 AM 69.1 °F 57.0 °F 65% 30.22 in 10.0 mi South 5.8 mph - N/A   Clear
11:53 AM 72.0 °F 59.0 °F 64% 30.22 in 10.0 mi South 5.8 mph - N/A   Clear
12:53 PM 73.9 °F 59.0 °F 59% 30.21 in 10.0 mi Variable 3.5 mph - N/A   Scattered Clouds
1:53 PM 75.0 °F 57.9 °F 55% 30.19 in 10.0 mi Variable 5.8 mph - N/A   Partly Cloudy
2:53 PM 78.1 °F 57.0 °F 48% 30.17 in 10.0 mi Calm Calm - N/A   Scattered Clouds
3:53 PM 77.0 °F 57.9 °F 52% 30.16 in 10.0 mi SSE 5.8 mph - N/A   Scattered Clouds
4:53 PM 75.9 °F 59.0 °F 56% 30.15 in 10.0 mi South 4.6 mph - N/A   Partly Cloudy
5:53 PM 75.9 °F 59.0 °F 56% 30.14 in 10.0 mi South 6.9 mph - N/A   Clear
6:53 PM 73.9 °F 60.1 °F 62% 30.14 in 10.0 mi SSW 8.1 mph - N/A   Partly Cloudy
7:53 PM 73.9 °F 59.0 °F 59% 30.14 in 10.0 mi SW 3.5 mph - N/A   Overcast
8:53 PM 72.0 °F 60.1 °F 66% 30.13 in 10.0 mi Calm Calm - N/A   Overcast
9:53 PM 72.0 °F 61.0 °F 68% 30.13 in 10.0 mi Calm Calm - N/A   Overcast
10:53 PM 71.1 °F 62.1 °F 73% 30.13 in 10.0 mi Calm Calm - N/A   Mostly Cloudy
11:53 PM 70.0 °F 62.1 °F 76% 30.12 in 10.0 mi Calm Calm - N/A   Overcast